Glasgow, MT

6:55 AM MDT on September 25, 2016 (GMT -0600)
Wokal-Glasgow International

Weather History for KGGW - October, 2014

Change the Weather History Date:

Tuesday, October 28, 2014

  Actual Average Record
Temperature  
Mean Temperature 38 °F 39 °F  
Max Temperature 45 °F 51 °F 81 °F (1937)
Min Temperature 30 °F 28 °F -3 °F (1925)
Degree Days  
Heating Degree Days 27 26  
Month to date heating degree days 412 550  
Since 1 July heating degree days 696 844  
Cooling Degree Days 0 0  
Month to date cooling degree days 0 0  
Year to date cooling degree days 495 532  
Moisture  
Dew Point 27 °F    
Average Humidity 67    
Maximum Humidity 85    
Minimum Humidity 49    
Precipitation  
Precipitation 0.00 in 0.02 in 0.64 in (1998)
Month to date precipitation 0.40 0.71  
Year to date precipitation 14.14 10.82  
Snow  
Snow 0.00 in 0.00 in 3.20 in (1961)
Month to date snowfall T 1.1  
Since 1 July snowfall T 1.3  
Since 1 September snowfall T 1.3  
Snow Depth 0.00 in    
Sea Level Pressure  
Sea Level Pressure 30.14 in    
Wind  
Wind Speed 10 mph (NW)    
Max Wind Speed 21 mph    
Max Gust Speed 26 mph    
Visibility 10 miles    
Events      
T = Trace of Precipitation, MM = Missing Value Source: NWS Daily Summary

Daily Weather History Graph

Daily Weather History Graph

Search for Another Location

Airport or City:

Trip Planner

Search our weather history database for the weather conditions in past years. The results will help you decide how hot, cold, wet, or windy it might be!

Date:

Astronomy

Oct. 28, 2014 Rise Set
Actual Time 7:45 AM MDT 5:53 PM MDT
Civil Twilight 7:13 AM MDT 6:26 PM MDT
Nautical Twilight 6:36 AM MDT 7:02 PM MDT
Astronomical Twilight 6:00 AM MDT 7:38 PM MDT
Moon 12:26 PM MDT (10/28) 9:54 PM MDT (10/28)
Length of Visible Light 11h 12m
Length of Day
10h 08m
Waxing Crescent, 25% of the Moon is Illuminated
Oct 28
Waxing Crescent
Oct 30
First Quarter
Nov 6
Full
Nov 14
Last Quarter
Nov 22
New

Hourly Weather History & Observations

Time (MDT) Temp. Windchill Dew Point Humidity Pressure Visibility Wind Dir Wind Speed Gust Speed Precip Events Conditions
12:53 AM 34.0 °F 25.0 °F 28.9 °F 82% 30.13 in 10.0 mi WNW 12.7 mph - N/A   Overcast
1:53 AM 34.0 °F 25.5 °F 28.0 °F 79% 30.14 in 10.0 mi WNW 11.5 mph - N/A   Overcast
2:53 AM 34.0 °F 23.8 °F 28.0 °F 79% 30.16 in 10.0 mi WNW 16.1 mph - N/A   Overcast
3:53 AM 35.6 °F 27.1 °F 26.6 °F 70% 30.08 in 10.0 mi NW 12.7 mph - N/A   Overcast
4:53 AM 34.0 °F 24.6 °F 27.0 °F 75% 30.17 in 10.0 mi NW 13.8 mph - N/A   Overcast
5:53 AM 34.0 °F 24.2 °F 26.1 °F 73% 30.18 in 10.0 mi NW 15.0 mph - N/A   Overcast
6:53 AM 34.0 °F 25.0 °F 26.1 °F 73% 30.19 in 10.0 mi NW 12.7 mph - N/A   Overcast
7:53 AM 33.1 °F 26.9 °F 26.1 °F 75% 30.19 in 10.0 mi NW 6.9 mph - N/A   Overcast
8:53 AM 34.0 °F 28.0 °F 26.1 °F 73% 30.22 in 10.0 mi WNW 6.9 mph - N/A   Overcast
9:53 AM 35.1 °F 27.9 °F 25.0 °F 67% 30.22 in 10.0 mi NNW 9.2 mph - N/A   Overcast
10:19 AM 37.0 °F 31.0 °F 25.0 °F 62% 30.15 in 10.0 mi NNW 8.1 mph - N/A   Scattered Clouds
10:32 AM 37.0 °F 31.0 °F 26.1 °F 65% 30.14 in 10.0 mi NNW 8.1 mph - N/A   Mostly Cloudy
10:53 AM 37.0 °F 32.4 °F 26.1 °F 65% 30.22 in 10.0 mi NNW 5.8 mph - N/A   Scattered Clouds
11:02 AM 37.0 °F 31.6 °F 26.1 °F 65% 30.14 in 10.0 mi WNW 6.9 mph - N/A   Mostly Cloudy
11:53 AM 37.9 °F 34.4 °F 26.1 °F 62% 30.20 in 10.0 mi NNW 4.6 mph - N/A   Scattered Clouds
12:53 PM 39.9 °F 35.8 °F 27.0 °F 60% 30.19 in 10.0 mi WSW 5.8 mph - N/A   Clear
1:53 PM 41.0 °F 37.1 °F 27.0 °F 57% 30.16 in 10.0 mi SW 5.8 mph - N/A   Clear
2:53 PM 43.0 °F 41.3 °F 27.0 °F 53% 30.14 in 10.0 mi Variable 3.5 mph - N/A   Clear
3:53 PM 44.1 °F - 27.0 °F 51% 30.13 in 10.0 mi Calm Calm - N/A   Clear
4:53 PM 44.1 °F 40.1 °F 28.0 °F 53% 30.13 in 10.0 mi SSE 6.9 mph - N/A   Unknown
5:53 PM 37.9 °F 32.1 °F 28.9 °F 70% 30.13 in 10.0 mi SE 8.1 mph - N/A   Clear
6:53 PM 35.1 °F 26.9 °F 27.0 °F 72% 30.12 in 10.0 mi ESE 11.5 mph - N/A   Clear
7:53 PM 33.1 °F 23.9 °F 26.1 °F 75% 30.12 in 10.0 mi East 12.7 mph - N/A   Clear
8:53 PM 32.0 °F 22.1 °F 26.1 °F 79% 30.09 in 10.0 mi ESE 13.8 mph - N/A   Clear
9:53 PM 32.0 °F 21.6 °F 26.1 °F 79% 30.08 in 10.0 mi ESE 15.0 mph - N/A   Clear
10:53 PM 30.9 °F 20.7 °F 26.1 °F 82% 30.07 in 10.0 mi ESE 13.8 mph - N/A   Clear
11:53 PM 30.0 °F 18.7 °F 25.0 °F 82% 30.04 in 10.0 mi ESE 16.1 mph - N/A   Clear